Location: Godzisko
(49.9648°N, 19.4576°E)
Time: 00:38:27
(UTC+00:00)

Gbstr 26 Del rocket - Pass Details

Date: 20 April 2021
Orbit: 493 x 1263 km, 51.8° (Epoch: 08 May)

Event Time Altitude Azimuth Distance (km) Brightness Sun altitude
Exits shadow 01:51:54 18° 263° (W) 2,028 5.2 -15.7°
Maximum altitude 01:56:25 79° 349° (N) 790 3.6 -15.2°
Drops below altitude 10° 02:01:15 10° 76° (ENE) 2,089 6.8 -14.6°
Sets 02:03:21 0° 78° (ENE) 2,906 7.7 -14.3°
